Location: Conflandey
(47.7287°N, 6.0456°E)
Time: 20:51:22
(UTC+00:00)

Cosmos 2322 Rocket - Pass Details

Date: 24 October 2021
Orbit: 832 x 851 km, 71.0° (Epoch: 05 December)

Event Time Altitude Azimuth Distance (km) Brightness Sun altitude
Rises 18:03:04 0° 202° (SSW) 3,363 5.6 -16.1°
Reaches altitude 10° 18:05:29 10° 201° (SSW) 2,433 4.9 -16.5°
Maximum altitude 18:11:04 81° 115° (ESE) 848 2.1 -17.4°
Drops below altitude 10° 18:16:42 10° 29° (NNE) 2,456 4.4 -18.4°
Enters shadow 18:18:09 - 29° (NNE) 3,011 4.8 -18.6°
